Theta_e
314 311 306 295 287 282 280 285 289 290 293 297 300 298 296 298 298 292 306 324 327 334 338 346 350 352 353 353 352 352 351 352 353 356 356 355 354 354 354 353 352 352 353 352 351 351 350 349 349
313 310 298 288 280 276 281 285 288 294 296 293 296 295 292 294 300 303 305 320 332 335 338 345 347 351 352 352 352 352 351 352 353 355 355 355 354 354 354 353 351 352 353 350 349 350 348 347 348
313 305 294 286 279 278 281 284 289 293 296 294 292 294 293 294 295 301 307 314 329 334 339 344 345 350 351 351 351 351 351 351 352 353 354 354 354 353 353 352 351 352 352 351 349 349 346 346 347
306 301 294 283 281 284 286 285 285 288 291 293 292 292 294 297 299 302 309 312 330 333 340 342 346 350 351 351 351 351 352 351 352 352 353 354 353 353 352 352 351 351 350 350 349 347 345 346 346
300 293 282 282 284 287 288 289 288 286 287 288 290 290 289 296 299 300 306 318 328 332 337 341 344 348 349 350 350 351 351 352 351 351 352 352 352 351 351 351 351 350 349 349 348 344 346 346 345
292 290 280 279 282 287 289 289 287 287 288 290 289 288 292 294 297 300 305 309 328 332 339 340 338 342 345 347 348 349 349 351 350 350 350 350 350 350 350 350 350 349 349 348 347 343 343 344 344
287 287 282 281 281 283 285 289 286 287 288 289 292 288 292 293 297 303 305 309 316 329 336 340 341 339 336 341 343 345 346 348 348 348 348 347 346 347 348 347 348 348 348 346 345 342 341 343 342
290 286 281 282 282 283 289 289 290 288 288 293 293 287 287 293 298 299 300 306 317 324 333 338 339 341 344 344 335 337 341 342 344 343 341 338 339 341 341 339 344 347 346 345 343 341 340 341 335
291 282 278 278 280 283 288 284 289 291 289 291 293 293 296 292 294 294 297 300 302 311 329 336 336 339 342 342 338 332 334 335 336 336 333 332 342 340 336 337 339 343 342 342 341 340 338 332 330
285 280 280 284 282 281 282 283 283 283 284 285 286 292 292 292 291 291 292 295 299 302 314 328 332 335 340 341 342 342 343 342 341 341 340 340 339 339 338 332 332 336 335 337 338 337 327 320 318
280 276 278 281 282 283 281 280 282 281 279 283 283 286 289 290 290 290 292 293 296 301 307 313 330 332 336 339 340 340 341 341 340 339 340 341 337 334 335 336 333 333 327 332 331 323 310 310 312
275 279 280 281 282 281 279 281 279 280 280 284 285 287 287 287 287 289 291 292 294 297 301 310 323 329 335 337 337 338 337 339 339 340 339 338 335 334 334 334 332 329 326 318 310 305 301 302 303
276 278 279 280 280 280 281 278 278 279 282 284 284 284 284 285 287 290 291 292 294 295 299 303 313 321 329 333 337 336 336 336 338 338 339 338 334 332 332 331 328 325 320 314 306 300 300 299 302
278 278 278 280 279 279 278 278 279 280 283 283 283 282 283 284 285 287 288 289 291 295 298 300 305 312 324 329 332 333 335 335 335 336 336 335 332 330 329 325 323 319 317 312 303 300 300 300 300
279 275 277 278 278 277 279 275 276 281 283 281 281 282 283 284 286 286 288 289 292 295 298 300 302 312 317 326 330 331 333 333 332 333 332 333 330 327 324 322 319 317 312 305 302 300 299 299 297
275 274 270 276 277 278 277 271 278 282 281 280 281 282 282 283 285 287 288 290 293 296 296 298 302 308 318 324 328 330 331 329 329 329 329 328 327 325 323 319 316 311 305 303 301 300 299 298 296
273 268 269 273 278 276 275 272 279 282 281 280 281 282 282 283 285 286 288 289 291 293 295 296 299 303 310 317 326 328 330 328 329 327 327 327 326 324 321 317 312 308 305 302 300 299 299 297 295
268 269 271 270 274 276 274 274 278 281 281 280 281 282 282 283 284 287 288 289 290 292 294 296 298 301 309 316 324 326 326 327 326 325 325 323 323 322 319 313 308 306 303 301 300 298 297 298 297
272 271 269 272 276 274 273 274 276 279 279 279 280 281 282 283 285 287 287 288 289 290 292 294 295 298 305 311 319 322 322 323 322 323 322 321 321 320 316 309 306 304 303 300 299 297 295 292 296
273 271 270 273 276 275 273 272 276 277 278 279 279 279 280 282 283 285 286 287 287 288 290 293 294 296 301 310 318 323 324 322 321 321 320 321 320 319 316 310 307 304 302 301 298 297 293 292 295
273 271 271 270 274 274 272 269 273 275 275 277 278 279 279 280 281 283 284 285 285 285 288 291 294 296 301 308 317 319 320 319 318 317 317 317 318 317 315 312 309 305 302 300 298 298 296 293 293
268 275 274 273 268 263 273 263 270 272 272 274 275 276 277 278 281 283 283 284 285 285 287 289 293 297 302 309 314 316 317 316 316 316 316 316 316 315 313 310 308 305 302 300 299 298 297 297 294
269 275 273 271 267 267 266 265 267 271 269 271 274 276 277 278 280 280 283 284 285 285 285 287 291 296 303 309 314 316 317 317 317 315 313 313 313 313 312 310 307 305 303 301 299 298 296 297 295
275 269 270 263 262 259 265 266 267 267 270 271 273 274 276 277 278 280 282 284 284 285 286 286 290 294 301 309 312 315 317 315 314 313 311 310 311 311 310 310 308 307 304 301 300 299 298 297 297
264 259 253 253 252 255 269 266 267 270 272 272 271 273 274 276 276 278 279 283 283 283 285 288 293 294 301 309 310 314 315 315 313 312 310 309 308 308 307 307 306 305 305 303 302 301 300 297 296
260 260 257 255 251 260 269 258 266 272 274 274 274 273 274 274 275 277 278 283 283 283 284 287 293 297 303 309 309 312 315 315 314 313 311 310 308 308 307 307 305 304 303 302 302 301 300 299 298
261 263 269 265 251 254 261 266 270 274 272 272 271 272 272 273 275 276 277 280 282 282 283 284 288 291 294 305 306 310 313 313 312 312 312 311 310 308 306 306 304 304 303 302 301 298 298 299 297
269 274 263 262 255 252 258 260 262 266 267 269 268 270 271 272 273 275 276 277 281 282 283 284 286 287 289 293 299 304 310 312 312 312 310 309 308 307 305 302 301 300 301 301 299 295 292 295 294
262 264 270 270 264 258 256 259 263 265 268 267 268 270 271 271 272 273 275 276 279 281 282 282 284 285 286 289 293 295 297 303 308 309 309 306 301 300 301 299 293 294 294 294 297 296 295 294 293
266 267 272 264 260 263 264 262 265 268 269 270 269 270 272 272 272 273 274 275 277 279 280 281 282 282 285 286 288 289 291 293 292 294 295 301 301 301 299 297 296 295 295 295 297 294 294 294 292
Wind_Speed
6 3 3 5 3 4 6 9 4 5 4 4 6 6 10 6 8 8 2 6 9 5 9 16 20 21 22 21 20 21 20 20 18 19 22 24 24 24 24 22 21 20 19 20 18 18 17 16 16
4 1 5 3 4 2 11 9 13 19 8 1 3 2 3 10 6 12 9 3 4 5 7 15 20 21 22 21 20 20 21 21 21 19 22 24 24 24 23 23 22 21 19 20 20 18 18 17 16
3 3 4 5 5 13 16 9 14 10 10 4 4 3 4 7 3 5 6 12 6 5 8 14 20 22 21 20 20 20 22 21 22 21 22 24 24 24 24 23 23 22 21 20 20 19 20 17 17
2 4 3 3 17 24 18 5 2 1 5 5 3 9 7 5 6 4 11 12 5 6 7 13 22 24 24 23 22 21 21 22 21 22 21 23 24 24 23 23 22 22 22 20 20 19 20 17 16
4 2 2 5 22 23 14 8 5 4 3 2 1 7 9 11 8 10 10 11 8 5 5 9 20 22 23 24 24 23 22 23 22 22 23 23 24 24 23 22 21 22 21 21 19 21 18 18 17
2 2 1 12 24 28 16 5 1 2 4 6 6 6 16 2 7 10 11 14 6 6 5 8 15 20 23 23 25 25 24 24 24 24 24 24 24 24 24 23 22 21 21 22 19 21 19 17 16
5 2 9 9 24 22 6 2 3 5 8 10 6 13 12 6 15 16 14 14 11 7 5 7 13 13 14 18 21 24 25 23 23 24 24 24 24 24 24 23 22 22 21 22 19 19 20 17 16
4 3 5 9 18 26 10 5 7 8 7 4 5 7 6 11 20 17 15 12 11 7 6 9 9 15 12 13 15 17 21 22 21 22 21 19 20 21 21 19 21 22 22 21 21 17 19 18 15
1 3 12 7 6 16 11 11 5 7 15 6 7 15 15 17 22 20 20 18 13 11 7 10 9 11 14 12 13 14 13 16 17 17 17 15 13 14 15 17 21 22 22 22 20 18 16 14 15
4 5 8 5 5 10 18 12 14 11 19 20 19 19 19 23 18 21 18 19 18 15 9 10 10 10 11 9 12 14 15 12 13 14 15 12 12 12 14 15 19 19 17 19 19 19 17 12 6
3 7 5 16 9 11 19 24 10 14 26 15 21 23 23 23 24 22 19 16 18 18 14 12 12 7 9 9 8 7 9 10 9 14 13 13 9 9 9 8 8 10 13 8 11 10 6 9 8
4 8 6 13 12 14 18 18 19 19 25 16 21 20 24 23 22 22 22 21 21 19 18 13 9 7 9 8 7 9 9 10 10 12 14 11 7 10 11 9 10 10 9 9 6 5 6 7 8
5 12 12 16 16 14 15 22 25 25 24 22 19 21 23 23 22 20 19 20 20 20 18 13 8 9 12 14 8 9 10 9 13 12 14 12 11 11 10 10 11 10 9 10 9 6 7 7 7
5 6 14 15 23 14 20 24 21 30 29 26 23 23 22 24 22 22 23 24 22 21 18 13 12 9 12 13 13 10 9 10 10 11 13 15 11 11 11 11 10 10 10 8 9 9 7 6 8
8 11 15 22 22 15 6 14 20 30 30 23 22 17 20 22 21 21 23 24 21 19 17 14 12 11 12 16 14 11 9 9 9 10 12 16 14 14 14 11 10 10 10 11 9 8 6 7 4
8 5 11 14 10 9 10 17 23 28 19 24 25 21 20 24 24 21 20 22 19 16 14 13 12 13 12 13 14 12 11 8 7 7 10 15 15 16 14 12 11 10 11 9 11 9 8 8 6
5 7 10 16 15 5 5 14 27 26 18 22 24 23 21 22 24 23 20 17 19 20 16 12 10 11 14 13 14 10 11 11 10 8 9 13 15 16 13 12 11 10 8 11 9 5 9 10 7
11 9 14 19 10 11 19 24 29 25 17 24 23 23 23 23 26 24 21 20 19 21 18 14 11 12 12 10 11 7 8 8 8 8 9 13 11 15 12 11 14 13 10 9 9 6 4 4 10
12 15 18 23 24 17 20 21 32 28 18 22 21 20 21 22 22 20 20 20 20 12 15 17 13 12 7 7 8 9 10 8 8 9 12 14 13 15 15 12 14 11 13 13 13 10 11 3 7
15 18 22 25 14 9 22 27 32 25 20 12 10 11 13 14 16 18 19 19 19 18 14 15 12 10 9 6 6 9 8 8 8 10 10 14 15 15 14 17 16 16 11 11 13 12 7 3 6
18 15 19 21 23 10 15 16 17 4 5 8 10 11 13 13 16 15 17 20 16 13 13 14 14 12 10 9 7 7 5 5 7 9 9 10 14 14 16 16 15 17 15 13 15 14 11 9 4
14 8 15 17 11 12 7 15 11 3 3 11 13 13 16 17 17 17 18 19 21 17 13 12 12 10 11 10 9 13 10 8 5 9 9 9 12 12 11 15 16 19 16 15 14 12 8 13 12
12 13 13 17 17 14 3 7 5 6 6 15 16 16 17 17 17 19 19 16 18 16 13 11 13 10 11 8 11 12 12 8 8 9 12 11 8 9 8 12 14 14 14 15 16 15 11 10 10
10 6 15 4 2 3 8 7 15 2 8 13 13 15 17 19 18 18 19 14 12 10 9 7 9 13 12 11 11 15 16 12 11 11 10 9 8 8 9 11 12 12 10 13 13 13 13 11 10
8 8 6 8 5 7 7 13 12 1 5 9 15 16 17 17 17 17 19 14 13 13 12 9 7 12 11 11 10 15 18 15 15 14 10 10 8 6 9 8 10 9 11 11 9 11 11 11 10
3 7 4 7 3 17 10 7 5 5 4 11 13 16 17 17 16 17 18 12 10 11 12 11 9 11 8 10 10 10 15 12 12 14 12 10 9 10 12 13 12 11 5 8 10 10 10 10 8
6 2 5 6 1 4 4 7 6 12 16 18 17 17 17 17 17 16 16 16 10 9 10 10 9 3 5 5 7 8 11 13 11 12 11 12 12 10 13 13 13 13 13 7 5 4 8 11 10
5 2 5 1 6 7 6 6 5 14 15 16 15 16 17 17 17 15 15 16 12 9 9 8 7 5 6 7 7 4 8 10 11 10 11 11 11 11 14 16 13 14 14 14 11 5 2 5 6
5 5 5 3 3 4 7 6 5 7 10 14 14 16 16 16 16 15 14 16 14 9 9 8 7 9 10 9 9 8 6 7 11 10 10 9 8 9 9 10 10 12 12 12 13 11 10 6 5
5 5 2 2 7 4 5 10 4 5 6 10 13 15 16 15 15 14 15 16 14 12 11 10 9 12 10 10 11 10 8 10 9 7 6 10 10 11 12 11 12 12 10 11 13 12 10 12 10
Wind_Direction
345 5 69 43 63 57 252 233 210 217 247 215 137 163 204 200 177 211 262 259 211 207 184 182 186 183 175 173 174 173 177 171 170 162 158 161 161 162 160 159 159 159 160 155 156 148 139 132 130
317 338 50 78 121 215 253 191 213 218 209 78 156 244 242 248 267 289 332 331 192 192 184 185 184 184 180 176 174 174 177 176 171 169 162 162 162 162 162 160 159 161 162 158 157 149 144 141 135
296 49 104 147 190 224 246 200 229 237 250 296 324 224 217 231 234 232 317 336 287 239 181 191 185 179 181 180 176 177 177 180 175 173 169 162 162 163 164 164 162 162 161 158 158 151 150 147 141
63 8 24 155 229 246 239 217 138 351 312 220 157 275 278 261 332 342 308 332 287 254 220 197 189 183 181 181 177 179 180 179 180 176 174 168 165 165 166 167 166 165 164 158 160 157 156 149 146
23 70 216 238 246 257 236 270 280 276 289 330 348 271 285 319 300 318 347 326 294 288 255 213 196 192 188 184 181 180 183 180 182 180 178 175 170 168 168 169 169 166 158 157 160 163 156 150 150
61 96 179 238 243 245 253 289 245 194 234 276 256 256 262 319 1 325 337 322 294 285 275 255 213 197 192 193 186 183 184 184 182 183 180 178 175 171 170 169 167 166 162 154 162 166 161 152 153
131 173 238 255 257 274 288 354 308 293 279 277 260 272 264 31 355 338 332 331 322 286 259 241 230 221 198 194 193 185 184 187 185 185 184 180 178 173 172 170 168 167 164 155 162 169 161 155 149
129 149 259 240 259 274 288 318 339 358 320 336 353 257 299 348 345 332 328 331 327 303 262 237 222 222 211 197 197 192 186 185 185 186 189 185 179 176 175 166 165 167 165 159 155 163 162 153 143
200 245 250 253 240 263 337 353 350 311 286 308 308 301 315 346 338 339 332 319 322 323 290 261 216 211 220 211 200 193 193 186 187 185 189 183 183 177 171 173 165 166 163 154 153 160 156 140 132
173 221 246 227 353 312 305 301 313 312 303 286 297 296 318 324 332 323 322 319 316 311 314 295 253 214 220 216 214 206 199 198 198 196 190 191 185 179 177 172 165 161 154 150 157 152 133 120 122
280 245 359 284 302 300 300 301 296 284 276 293 295 298 299 304 305 303 300 300 304 301 301 306 263 221 197 225 214 213 207 199 198 199 187 194 186 182 173 161 151 145 137 148 151 137 134 139 139
280 255 268 290 284 286 284 299 286 283 279 286 279 284 287 280 283 284 286 291 295 301 294 289 289 258 212 219 212 215 220 202 198 198 186 180 182 180 177 172 156 147 148 137 125 139 122 124 121
261 275 294 285 289 279 279 272 276 283 282 280 269 271 275 276 270 273 271 276 283 285 289 283 279 277 239 219 218 213 215 208 205 198 189 185 183 179 167 168 151 153 156 145 139 135 132 127 123
238 255 257 273 276 278 269 277 281 281 275 267 265 264 264 266 266 269 265 264 268 273 275 281 275 269 264 229 218 227 214 212 210 199 191 187 175 173 169 160 155 154 155 150 141 143 138 139 134
276 279 274 269 267 261 260 257 251 254 266 276 272 262 264 265 269 259 257 260 253 257 265 266 273 264 261 244 220 216 219 204 209 195 183 184 170 175 159 154 156 157 142 137 123 117 109 113 126
271 240 266 255 230 235 166 264 269 264 273 278 275 272 262 260 258 257 260 260 253 245 246 262 270 271 259 249 228 217 202 189 201 199 185 184 175 172 168 157 150 149 141 134 145 146 148 137 135
218 257 227 281 284 230 178 287 273 276 281 277 271 270 267 263 260 258 248 253 258 251 247 249 254 262 264 254 234 205 192 190 184 191 184 190 178 172 166 155 141 138 133 147 118 160 155 146 127
254 257 273 276 268 321 278 275 272 273 273 268 272 270 267 264 258 256 253 262 252 254 245 239 249 260 263 266 234 196 180 182 173 179 177 179 173 167 160 144 135 131 139 147 138 139 77 138 140
264 268 266 281 285 292 286 281 281 291 293 276 271 267 268 267 267 261 260 256 256 248 242 239 235 241 249 266 228 206 200 180 177 175 172 177 170 168 158 139 131 137 150 161 157 138 142 114 131
258 268 283 286 284 309 294 284 285 294 279 310 331 345 333 313 290 272 261 254 252 250 242 244 230 232 240 243 223 208 193 174 189 170 173 179 174 174 161 159 147 147 145 160 164 160 141 115 189
270 276 281 276 300 275 280 282 300 311 59 359 2 340 330 326 316 310 315 284 251 243 240 240 244 232 230 228 233 189 184 144 173 174 168 181 177 174 171 157 158 159 150 179 175 168 163 150 180
281 242 275 287 314 295 55 287 311 282 326 353 344 338 330 324 323 318 307 308 276 254 241 237 240 238 232 220 222 196 203 178 175 169 162 172 175 166 168 158 165 161 161 175 180 175 170 152 165
247 304 281 269 266 295 297 228 273 25 336 344 328 323 322 321 325 318 309 301 306 269 242 233 238 232 236 216 217 193 190 179 144 157 157 156 164 156 184 160 158 168 171 175 178 176 166 169 159
308 323 293 357 145 240 248 202 300 312 326 314 316 319 319 321 321 314 315 304 305 321 307 265 227 235 227 211 208 189 186 167 153 154 160 154 159 153 156 163 157 171 170 177 180 179 172 170 167
41 29 326 348 359 235 300 298 262 14 334 325 318 321 326 325 323 320 325 312 317 322 319 304 268 245 217 204 192 192 176 169 156 150 153 146 156 156 167 161 154 162 171 170 180 183 181 175 174
230 155 182 290 277 294 286 245 261 182 11 341 332 327 330 328 325 321 328 314 323 326 314 304 278 254 228 186 192 189 182 174 171 161 154 152 164 180 176 162 158 137 148 159 182 195 189 178 180
272 228 221 278 71 3 264 291 122 344 348 343 338 337 333 330 330 326 336 334 331 337 323 322 304 359 351 143 188 175 174 167 165 161 169 151 159 170 162 158 159 150 145 151 167 208 189 186 178
181 288 321 318 312 299 280 282 260 334 328 333 333 336 333 333 334 335 342 338 331 337 329 342 323 27 34 48 75 116 151 154 149 147 147 152 151 164 168 160 160 160 168 166 171 181 149 181 195
342 299 227 258 205 269 307 268 215 279 323 324 335 340 336 335 337 339 344 342 333 342 351 358 7 34 42 39 68 69 70 124 138 149 144 144 135 144 163 160 143 158 163 169 179 176 169 185 173
195 234 253 255 289 236 271 278 227 270 313 337 339 339 340 340 339 346 352 346 350 355 5 8 18 41 33 48 58 58 58 64 72 77 100 142 156 166 163 161 159 158 168 169 184 174 167 179 172